Weather History for Hibbing, MN

Change the Weather History Date:

Thursday, September 26, 2013

  Actual Average Record
Temperature  
Mean Temperature 62 °F -  
Max Temperature 73 °F 60 °F 79 °F (1963)
Min Temperature 50 °F 37 °F 20 °F (1965)
Degree Days  
Heating Degree Days 4    
Growing Degree Days 12 (Base 50)    
Moisture  
Dew Point 52 °F    
Average Humidity 81    
Maximum Humidity 96    
Minimum Humidity 55    
Precipitation  
Precipitation 0.00 in - - ()
Sea Level Pressure  
Sea Level Pressure 29.95 in    
Wind  
Wind Speed 9 mph (SE)    
Max Wind Speed 20 mph    
Max Gust Speed 30 mph    
Visibility 8 miles    
Events      
Averages and records for this station are not official NWS values.
T = Trace of Precipitation, MM = Missing Value Source: NWS Daily Summary

Daily Weather History Graph

Daily Weather History Graph

Search for Another Location

Airport:

Trip Planner

Search our weather history database for the weather conditions in past years. The results will help you decide how hot, cold, wet, or windy it might be!

Date:

Astronomy

Sep. 26, 2013 Rise Set
Actual Time 7:03 AM CDT 7:00 PM CDT
Civil Twilight 6:33 AM CDT 7:30 PM CDT
Nautical Twilight 5:57 AM CDT 8:06 PM CDT
Astronomical Twilight 5:20 AM CDT 8:43 PM CDT
Moon 11:38 PM CDT (9/26) 2:17 PM CDT (9/26)
Length of Visible Light 12h 57m
Length of Day
11h 56m
Waning Gibbous, 54% of the Moon is Illuminated
Sep 26
Waning Gibbous
Sep 26
Last Quarter
Oct 4
New
Oct 11
First Quarter
Oct 18
Full

Hourly Weather History & Observations

Time (CDT) Temp. Dew Point Humidity Pressure Visibility Wind Dir Wind Speed Gust Speed Precip Events Conditions
12:00 AM 50.0 °F 46.4 °F 87% 29.96 in 10.0 mi SE 9.2 mph - N/A   Scattered Clouds
12:08 AM 51.8 °F 50.0 °F 94% 29.97 in 9.0 mi SE 9.2 mph - N/A   Mostly Cloudy
12:29 AM 51.8 °F 50.0 °F 94% 29.97 in 1.8 mi SE 8.1 mph - N/A   Overcast
12:53 AM 52.0 °F 50.0 °F 93% 29.97 in 1.8 mi SE 5.8 mph - N/A   Overcast
1:01 AM 51.8 °F 50.0 °F 94% 29.97 in 2.5 mi SE 6.9 mph - N/A   Overcast
1:11 AM 51.8 °F 50.0 °F 94% 29.97 in 4.0 mi SE 8.1 mph - N/A   Overcast
1:53 AM 53.1 °F 51.1 °F 93% 29.98 in 6.0 mi SE 6.9 mph - N/A   Overcast
2:53 AM 53.1 °F 50.0 °F 89% 29.97 in 6.0 mi SE 8.1 mph - N/A   Overcast
3:53 AM 53.1 °F 50.0 °F 89% 29.96 in 7.0 mi SE 9.2 mph - N/A   Overcast
4:43 AM 53.6 °F 50.0 °F 88% 29.96 in 8.0 mi SE 8.1 mph - N/A   Overcast
4:53 AM 53.1 °F 50.0 °F 89% 29.97 in 8.0 mi SE 5.8 mph - N/A   Overcast
5:53 AM 51.1 °F 50.0 °F 96% 29.97 in 6.0 mi ESE 5.8 mph - N/A   Overcast
6:33 AM 51.8 °F 48.2 °F 88% 29.96 in 6.0 mi ESE 6.9 mph - N/A   Scattered Clouds
6:53 AM 51.1 °F 48.9 °F 92% 29.98 in 5.0 mi SE 5.8 mph - N/A   Scattered Clouds
7:22 AM 50.0 °F 48.2 °F 94% 29.96 in 3.0 mi SE 6.9 mph - N/A   Mostly Cloudy
7:53 AM 52.0 °F 50.0 °F 93% 29.98 in 3.0 mi SE 9.2 mph - N/A   Overcast
8:48 AM 55.4 °F 51.8 °F 88% 29.97 in 7.0 mi SE 8.1 mph - N/A   Mostly Cloudy
8:53 AM 55.0 °F 51.1 °F 86% 29.98 in 7.0 mi SE 10.4 mph - N/A   Mostly Cloudy
9:53 AM 60.1 °F 52.0 °F 75% 29.97 in 10.0 mi SE 11.5 mph - N/A   Clear
10:53 AM 64.9 °F 53.1 °F 65% 29.96 in 10.0 mi SE 12.7 mph - N/A   Clear
11:53 AM 69.1 °F 53.1 °F 57% 29.94 in 10.0 mi SSE 13.8 mph - N/A   Clear
12:53 PM 72.0 °F 55.0 °F 55% 29.92 in 10.0 mi SE 15.0 mph 23.0 mph N/A   Clear
1:53 PM 72.0 °F 55.9 °F 57% 29.90 in 10.0 mi SE 12.7 mph 25.3 mph N/A   Clear
2:53 PM 72.0 °F 55.0 °F 55% 29.90 in 10.0 mi SSE 16.1 mph 29.9 mph N/A   Clear
3:53 PM 73.0 °F 55.9 °F 55% 29.88 in 10.0 mi SE 18.4 mph 25.3 mph N/A   Clear
4:53 PM 71.1 °F 55.0 °F 57% 29.88 in 10.0 mi SE 19.6 mph 25.3 mph N/A   Clear
5:53 PM 70.0 °F 55.0 °F 59% 29.88 in 10.0 mi SE 13.8 mph 20.7 mph N/A   Clear
6:53 PM 64.9 °F 55.0 °F 70% 29.89 in 10.0 mi SE 11.5 mph - N/A   Clear
7:53 PM 62.1 °F 54.0 °F 75% 29.92 in 10.0 mi SSE 6.9 mph - N/A   Clear
8:53 PM 55.9 °F 52.0 °F 87% 29.94 in 10.0 mi SE 5.8 mph - N/A   Clear
9:53 PM 55.9 °F 52.0 °F 87% 29.95 in 10.0 mi ESE 4.6 mph - N/A   Clear
10:53 PM 55.0 °F 51.1 °F 86% 29.95 in 10.0 mi SE 4.6 mph - N/A   Clear
11:53 PM 55.9 °F 51.1 °F 84% 29.94 in 10.0 mi SE 5.8 mph - N/A   Clear